Time,TemperatureF,DewpointF,PressureIn,WindDirection,WindDirectionDegrees,WindSpeedMPH,WindSpeedGustMPH,Humidity,HourlyPrecipIn,Conditions,Clouds,dailyrainin,SoftwareType,DateUTC
2013-01-17 00:02:00,34.0,28.0,29.88,West,259,2.0,-999.0,78,-99.99,,,-99.99,,2013-01-17 06:02:00,
2013-01-17 00:12:00,34.0,28.0,29.88,WSW,237,0.0,-999.0,78,-99.99,,,-99.99,,2013-01-17 06:12:00,
2013-01-17 00:22:00,34.0,28.0,29.88,WSW,237,0.0,-999.0,78,-99.99,,,-99.99,,2013-01-17 06:22:00,
2013-01-17 00:32:00,34.0,28.0,29.89,WSW,241,0.0,-999.0,79,-99.99,,,-99.99,,2013-01-17 06:32:00,
2013-01-17 00:42:00,34.0,28.0,29.89,WSW,241,0.0,-999.0,79,-99.99,,,-99.99,,2013-01-17 06:42:00,
2013-01-17 00:52:00,34.0,28.0,29.90,WSW,240,0.0,-999.0,79,-99.99,,,-99.99,,2013-01-17 06:52:00,
2013-01-17 01:02:00,34.0,28.0,29.91,West,259,0.0,-999.0,79,-99.99,,,-99.99,,2013-01-17 07:02:00,
2013-01-17 01:12:00,34.0,28.0,29.91,West,259,0.0,-999.0,79,-99.99,,,-99.99,,2013-01-17 07:12:00,
2013-01-17 01:22:00,33.0,28.0,29.91,West,259,0.0,-999.0,80,-99.99,,,-99.99,,2013-01-17 07:22:00,
2013-01-17 01:32:00,33.0,28.0,29.93,WSW,238,0.0,-999.0,81,-99.99,,,-99.99,,2013-01-17 07:32:00,
2013-01-17 01:42:00,33.0,28.0,29.93,WSW,238,0.0,-999.0,81,-99.99,,,-99.99,,2013-01-17 07:42:00,
2013-01-17 01:52:00,33.0,28.0,29.93,WSW,238,0.0,-999.0,81,-99.99,,,-99.99,,2013-01-17 07:52:00,
2013-01-17 02:02:00,33.0,28.0,29.94,WSW,238,0.0,-999.0,83,-99.99,,,-99.99,,2013-01-17 08:02:00,
2013-01-17 02:12:00,33.0,28.0,29.94,WSW,238,0.0,-999.0,83,-99.99,,,-99.99,,2013-01-17 08:12:00,
2013-01-17 02:22:00,33.0,29.0,29.94,WSW,238,0.0,-999.0,84,-99.99,,,-99.99,,2013-01-17 08:22:00,
2013-01-17 02:32:00,33.0,29.0,29.94,WSW,237,0.0,-999.0,85,-99.99,,,-99.99,,2013-01-17 08:32:00,
2013-01-17 02:43:00,33.0,29.0,29.94,WSW,237,0.0,-999.0,85,-99.99,,,-99.99,,2013-01-17 08:43:00,
2013-01-17 02:53:00,33.0,29.0,29.95,WSW,238,0.0,-999.0,86,-99.99,,,-99.99,,2013-01-17 08:53:00,
2013-01-17 03:02:00,33.0,30.0,29.95,SSW,203,0.0,-999.0,87,-99.99,,,-99.99,,2013-01-17 09:02:00,
2013-01-17 03:12:00,33.0,30.0,29.95,SSW,203,0.0,-999.0,87,-99.99,,,-99.99,,2013-01-17 09:12:00,
2013-01-17 03:22:00,34.0,31.0,29.95,ESE,113,0.0,-999.0,87,-99.99,,,-99.99,,2013-01-17 09:22:00,
2013-01-17 03:32:00,34.0,31.0,29.96,ENE,69,1.0,-999.0,87,-99.99,,,-99.99,,2013-01-17 09:32:00,
2013-01-17 03:42:00,34.0,31.0,29.96,ENE,69,1.0,-999.0,87,-99.99,,,-99.99,,2013-01-17 09:42:00,
2013-01-17 03:52:00,34.0,31.0,29.97,ENE,73,1.0,-999.0,87,-99.99,,,-99.99,,2013-01-17 09:52:00,
2013-01-17 04:02:00,34.0,31.0,29.97,ENE,72,0.0,-999.0,87,-99.99,,,-99.99,,2013-01-17 10:02:00,
2013-01-17 04:12:00,34.0,31.0,29.97,ENE,72,0.0,-999.0,87,-99.99,,,-99.99,,2013-01-17 10:12:00,
2013-01-17 04:22:00,33.0,30.0,29.98,ENE,67,0.0,-999.0,88,-99.99,,,-99.99,,2013-01-17 10:22:00,
2013-01-17 04:32:00,33.0,30.0,29.98,ENE,64,1.0,-999.0,89,-99.99,,,-99.99,,2013-01-17 10:32:00,
2013-01-17 04:42:00,33.0,30.0,29.98,ENE,64,1.0,-999.0,89,-99.99,,,-99.99,,2013-01-17 10:42:00,
2013-01-17 04:53:00,32.0,29.0,29.99,ENE,71,0.0,-999.0,89,-99.99,,,-99.99,,2013-01-17 10:53:00,
2013-01-17 05:02:00,31.0,28.0,29.99,ENE,65,1.0,-999.0,90,-99.99,,,-99.99,,2013-01-17 11:02:00,
2013-01-17 05:12:00,31.0,28.0,29.99,ENE,65,1.0,-999.0,90,-99.99,,,-99.99,,2013-01-17 11:12:00,
2013-01-17 05:22:00,31.0,28.0,29.99,ENE,74,0.0,-999.0,90,-99.99,,,-99.99,,2013-01-17 11:22:00,
2013-01-17 05:32:00,31.0,28.0,30.01,ENE,78,1.0,-999.0,90,-99.99,,,-99.99,,2013-01-17 11:32:00,
2013-01-17 05:42:00,31.0,28.0,30.01,ENE,78,1.0,-999.0,90,-99.99,,,-99.99,,2013-01-17 11:42:00,
2013-01-17 05:53:00,30.0,27.0,30.02,ENE,65,1.0,-999.0,90,-99.99,,,-99.99,,2013-01-17 11:53:00,
2013-01-17 06:02:00,30.0,27.0,30.03,ENE,63,1.0,-999.0,89,-99.99,,,-99.99,,2013-01-17 12:02:00,
2013-01-17 06:12:00,30.0,27.0,30.03,ENE,63,1.0,-999.0,89,-99.99,,,-99.99,,2013-01-17 12:12:00,
2013-01-17 06:22:00,30.0,27.0,30.03,ENE,64,2.0,-999.0,88,-99.99,,,-99.99,,2013-01-17 12:22:00,
2013-01-17 06:32:00,30.0,26.0,30.05,ENE,68,1.0,-999.0,86,-99.99,,,-99.99,,2013-01-17 12:32:00,
2013-01-17 06:42:00,30.0,26.0,30.05,ENE,68,1.0,-999.0,86,-99.99,,,-99.99,,2013-01-17 12:42:00,
2013-01-17 06:53:00,30.0,26.0,30.05,ENE,63,2.0,-999.0,84,-99.99,,,-99.99,,2013-01-17 12:53:00,
2013-01-17 07:03:00,29.0,25.0,30.06,East,82,1.0,-999.0,84,-99.99,,,-99.99,,2013-01-17 13:03:00,
2013-01-17 07:12:00,29.0,25.0,30.06,East,82,1.0,-999.0,84,-99.99,,,-99.99,,2013-01-17 13:12:00,
2013-01-17 07:22:00,29.0,25.0,30.06,East,79,1.0,-999.0,84,-99.99,,,-99.99,,2013-01-17 13:22:00,
2013-01-17 07:33:00,28.0,24.0,30.07,ENE,59,1.0,-999.0,84,-99.99,,,-99.99,,2013-01-17 13:33:00,
2013-01-17 07:43:00,28.0,24.0,30.07,ENE,59,1.0,-999.0,84,-99.99,,,-99.99,,2013-01-17 13:43:00,
2013-01-17 07:53:00,28.0,24.0,30.08,NE,46,1.0,-999.0,83,-99.99,,,-99.99,,2013-01-17 13:53:00,
2013-01-17 08:03:00,28.0,23.0,30.08,ENE,65,1.0,-999.0,82,-99.99,,,-99.99,,2013-01-17 14:03:00,
2013-01-17 08:12:00,28.0,23.0,30.08,ENE,65,1.0,-999.0,82,-99.99,,,-99.99,,2013-01-17 14:12:00,
2013-01-17 08:23:00,28.0,23.0,30.09,ENE,65,1.0,-999.0,82,-99.99,,,-99.99,,2013-01-17 14:23:00,
2013-01-17 08:33:00,28.0,23.0,30.10,NE,38,2.0,-999.0,82,-99.99,,,-99.99,,2013-01-17 14:33:00,
2013-01-17 08:42:00,28.0,23.0,30.10,NE,38,2.0,-999.0,82,-99.99,,,-99.99,,2013-01-17 14:42:00,
2013-01-17 08:53:00,28.0,23.0,30.11,ENE,65,2.0,-999.0,82,-99.99,,,-99.99,,2013-01-17 14:53:00,
2013-01-17 09:03:00,28.0,23.0,30.11,ENE,75,2.0,-999.0,82,-99.99,,,-99.99,,2013-01-17 15:03:00,
2013-01-17 09:12:00,28.0,23.0,30.11,ENE,75,2.0,-999.0,82,-99.99,,,-99.99,,2013-01-17 15:12:00,
2013-01-17 09:22:00,28.0,23.0,30.12,North,360,2.0,-999.0,80,-99.99,,,-99.99,,2013-01-17 15:22:00,
2013-01-17 09:33:00,28.0,22.0,30.13,ENE,61,1.0,-999.0,79,-99.99,,,-99.99,,2013-01-17 15:33:00,
2013-01-17 09:43:00,28.0,22.0,30.13,ENE,61,1.0,-999.0,79,-99.99,,,-99.99,,2013-01-17 15:43:00,
2013-01-17 09:53:00,29.0,22.0,30.14,ENE,63,2.0,-999.0,75,-99.99,,,-99.99,,2013-01-17 15:53:00,
2013-01-17 10:02:00,29.0,22.0,30.14,East,86,2.0,-999.0,74,-99.99,,,-99.99,,2013-01-17 16:02:00,
2013-01-17 10:12:00,29.0,22.0,30.14,East,86,2.0,-999.0,74,-99.99,,,-99.99,,2013-01-17 16:12:00,
2013-01-17 10:22:00,29.0,21.0,30.15,NE,42,2.0,-999.0,73,-99.99,,,-99.99,,2013-01-17 16:22:00,
2013-01-17 10:33:00,29.0,20.0,30.14,NNE,30,2.0,-999.0,70,-99.99,,,-99.99,,2013-01-17 16:33:00,
2013-01-17 10:43:00,29.0,20.0,30.14,NNE,30,2.0,-999.0,70,-99.99,,,-99.99,,2013-01-17 16:43:00,
2013-01-17 10:52:00,29.0,20.0,30.14,ENE,78,3.0,-999.0,69,-99.99,,,-99.99,,2013-01-17 16:52:00,
2013-01-17 11:03:00,30.0,21.0,30.15,NE,45,1.0,-999.0,68,-99.99,,,-99.99,,2013-01-17 17:03:00,
2013-01-17 11:12:00,30.0,21.0,30.15,NE,45,1.0,-999.0,68,-99.99,,,-99.99,,2013-01-17 17:12:00,
2013-01-17 11:22:00,30.0,21.0,30.15,North,355,2.0,-999.0,68,-99.99,,,-99.99,,2013-01-17 17:22:00,
2013-01-17 11:33:00,31.0,20.0,30.15,WNW,302,1.0,-999.0,63,-99.99,,,-99.99,,2013-01-17 17:33:00,
2013-01-17 11:43:00,31.0,20.0,30.15,WNW,302,1.0,-999.0,63,-99.99,,,-99.99,,2013-01-17 17:43:00,
2013-01-17 11:53:00,31.0,20.0,30.15,NE,51,2.0,-999.0,64,-99.99,,,-99.99,,2013-01-17 17:53:00,
2013-01-17 12:03:00,31.0,21.0,30.15,NNE,22,2.0,-999.0,66,-99.99,,,-99.99,,2013-01-17 18:03:00,
2013-01-17 12:12:00,31.0,21.0,30.15,NNE,22,2.0,-999.0,66,-99.99,,,-99.99,,2013-01-17 18:12:00,
2013-01-17 12:22:00,31.0,21.0,30.14,ENE,63,2.0,-999.0,66,-99.99,,,-99.99,,2013-01-17 18:22:00,
2013-01-17 12:33:00,31.0,21.0,30.13,NE,49,2.0,-999.0,65,-99.99,,,-99.99,,2013-01-17 18:33:00,
2013-01-17 12:43:00,31.0,21.0,30.13,NE,49,2.0,-999.0,65,-99.99,,,-99.99,,2013-01-17 18:43:00,
2013-01-17 12:53:00,31.0,21.0,30.14,West,272,3.0,-999.0,66,-99.99,,,-99.99,,2013-01-17 18:53:00,
2013-01-17 13:03:00,32.0,22.0,30.13,ENE,63,2.0,-999.0,65,-99.99,,,-99.99,,2013-01-17 19:03:00,
2013-01-17 13:12:00,32.0,22.0,30.13,ENE,63,2.0,-999.0,65,-99.99,,,-99.99,,2013-01-17 19:12:00,
2013-01-17 13:22:00,32.0,21.0,30.14,NW,313,3.0,-999.0,63,-99.99,,,-99.99,,2013-01-17 19:22:00,
2013-01-17 13:33:00,32.0,20.0,30.14,ENE,78,2.0,-999.0,61,-99.99,,,-99.99,,2013-01-17 19:33:00,
2013-01-17 13:42:00,32.0,20.0,30.14,ENE,78,2.0,-999.0,61,-99.99,,,-99.99,,2013-01-17 19:42:00,
2013-01-17 13:53:00,32.0,19.0,30.13,ENE,70,3.0,-999.0,59,-99.99,,,-99.99,,2013-01-17 19:53:00,
2013-01-17 14:03:00,32.0,19.0,30.13,NE,44,2.0,-999.0,58,-99.99,,,-99.99,,2013-01-17 20:03:00,
2013-01-17 14:12:00,32.0,19.0,30.13,NE,44,2.0,-999.0,58,-99.99,,,-99.99,,2013-01-17 20:12:00,
2013-01-17 14:23:00,32.0,19.0,30.14,South,181,3.0,-999.0,58,-99.99,,,-99.99,,2013-01-17 20:23:00,
2013-01-17 14:33:00,32.0,18.0,30.14,ENE,69,3.0,-999.0,55,-99.99,,,-99.99,,2013-01-17 20:33:00,
2013-01-17 14:43:00,32.0,18.0,30.14,ENE,69,3.0,-999.0,55,-99.99,,,-99.99,,2013-01-17 20:43:00,
2013-01-17 14:54:00,32.0,19.0,30.14,ENE,69,3.0,-999.0,58,-99.99,,,-99.99,,2013-01-17 20:54:00,
2013-01-17 15:03:00,32.0,19.0,30.15,ENE,60,3.0,-999.0,58,-99.99,,,-99.99,,2013-01-17 21:03:00,
2013-01-17 15:12:00,32.0,19.0,30.15,ENE,60,3.0,-999.0,58,-99.99,,,-99.99,,2013-01-17 21:12:00,
2013-01-17 15:23:00,32.0,19.0,30.15,East,87,3.0,-999.0,59,-99.99,,,-99.99,,2013-01-17 21:23:00,
2013-01-17 15:33:00,32.0,19.0,30.15,North,9,2.0,-999.0,59,-99.99,,,-99.99,,2013-01-17 21:33:00,
2013-01-17 15:43:00,32.0,19.0,30.15,North,9,2.0,-999.0,59,-99.99,,,-99.99,,2013-01-17 21:43:00,
2013-01-17 15:53:00,31.0,19.0,30.16,NW,304,2.0,-999.0,61,-99.99,,,-99.99,,2013-01-17 21:53:00,
2013-01-17 16:03:00,31.0,20.0,30.16,NNE,13,2.0,-999.0,62,-99.99,,,-99.99,,2013-01-17 22:03:00,
2013-01-17 16:12:00,31.0,20.0,30.16,NNE,13,2.0,-999.0,62,-99.99,,,-99.99,,2013-01-17 22:12:00,
2013-01-17 16:23:00,31.0,20.0,30.17,ENE,63,1.0,-999.0,64,-99.99,,,-99.99,,2013-01-17 22:23:00,
2013-01-17 16:33:00,30.0,19.0,30.18,ENE,72,2.0,-999.0,64,-99.99,,,-99.99,,2013-01-17 22:33:00,
2013-01-17 16:42:00,30.0,19.0,30.18,ENE,72,2.0,-999.0,64,-99.99,,,-99.99,,2013-01-17 22:42:00,
2013-01-17 16:53:00,30.0,20.0,30.18,ENE,71,1.0,-999.0,66,-99.99,,,-99.99,,2013-01-17 22:53:00,
2013-01-17 17:03:00,29.0,19.0,30.18,ENE,59,1.0,-999.0,66,-99.99,,,-99.99,,2013-01-17 23:03:00,
2013-01-17 17:12:00,29.0,19.0,30.18,ENE,59,1.0,-999.0,66,-99.99,,,-99.99,,2013-01-17 23:12:00,
2013-01-17 17:22:00,29.0,20.0,30.19,ENE,57,0.0,-999.0,68,-99.99,,,-99.99,,2013-01-17 23:22:00,
2013-01-17 17:32:00,28.0,20.0,30.19,ENE,65,0.0,-999.0,70,-99.99,,,-99.99,,2013-01-17 23:32:00,
2013-01-17 17:42:00,28.0,20.0,30.19,ENE,65,0.0,-999.0,70,-99.99,,,-99.99,,2013-01-17 23:42:00,
2013-01-17 17:53:00,28.0,20.0,30.19,NE,55,0.0,-999.0,72,-99.99,,,-99.99,,2013-01-17 23:53:00,
2013-01-17 18:02:00,27.0,20.0,30.20,NE,55,0.0,-999.0,75,-99.99,,,-99.99,,2013-01-18 00:02:00,
2013-01-17 18:12:00,27.0,20.0,30.20,NE,55,0.0,-999.0,75,-99.99,,,-99.99,,2013-01-18 00:12:00,
2013-01-17 18:23:00,27.0,21.0,30.20,ENE,61,0.0,-999.0,77,-99.99,,,-99.99,,2013-01-18 00:23:00,
2013-01-17 18:32:00,27.0,21.0,30.20,ENE,61,0.0,-999.0,77,-99.99,,,-99.99,,2013-01-18 00:32:00,
2013-01-17 18:42:00,26.0,20.0,30.21,ENE,61,0.0,-999.0,78,-99.99,,,-99.99,,2013-01-18 00:42:00,
2013-01-17 18:53:00,26.0,20.0,30.21,ENE,62,0.0,-999.0,78,-99.99,,,-99.99,,2013-01-18 00:53:00,
2013-01-17 19:02:00,25.0,19.0,30.21,ENE,61,0.0,-999.0,79,-99.99,,,-99.99,,2013-01-18 01:02:00,
2013-01-17 19:12:00,25.0,19.0,30.21,ENE,61,0.0,-999.0,79,-99.99,,,-99.99,,2013-01-18 01:12:00,
2013-01-17 19:22:00,25.0,20.0,30.21,ENE,62,0.0,-999.0,80,-99.99,,,-99.99,,2013-01-18 01:22:00,
2013-01-17 19:33:00,24.0,19.0,30.22,ENE,62,0.0,-999.0,80,-99.99,,,-99.99,,2013-01-18 01:33:00,
2013-01-17 19:42:00,24.0,19.0,30.22,ENE,62,0.0,-999.0,80,-99.99,,,-99.99,,2013-01-18 01:42:00,
2013-01-17 19:53:00,24.0,19.0,30.22,ENE,62,0.0,-999.0,81,-99.99,,,-99.99,,2013-01-18 01:53:00,
2013-01-17 20:02:00,23.0,18.0,30.22,ENE,62,0.0,-999.0,82,-99.99,,,-99.99,,2013-01-18 02:02:00,
2013-01-17 20:12:00,23.0,18.0,30.22,ENE,62,0.0,-999.0,82,-99.99,,,-99.99,,2013-01-18 02:12:00,
2013-01-17 20:22:00,23.0,18.0,30.22,ENE,62,0.0,-999.0,82,-99.99,,,-99.99,,2013-01-18 02:22:00,
2013-01-17 20:32:00,22.0,18.0,30.22,ENE,62,0.0,-999.0,83,-99.99,,,-99.99,,2013-01-18 02:32:00,
2013-01-17 20:42:00,22.0,18.0,30.22,ENE,62,0.0,-999.0,83,-99.99,,,-99.99,,2013-01-18 02:42:00,
2013-01-17 20:53:00,22.0,18.0,30.22,ENE,61,0.0,-999.0,84,-99.99,,,-99.99,,2013-01-18 02:53:00,
2013-01-17 21:02:00,22.0,18.0,30.23,ENE,61,0.0,-999.0,85,-99.99,,,-99.99,,2013-01-18 03:02:00,
2013-01-17 21:12:00,22.0,18.0,30.23,ENE,61,0.0,-999.0,85,-99.99,,,-99.99,,2013-01-18 03:12:00,
2013-01-17 21:22:00,22.0,18.0,30.23,WSW,239,0.0,-999.0,86,-99.99,,,-99.99,,2013-01-18 03:22:00,
2013-01-17 21:33:00,22.0,18.0,30.24,SW,236,0.0,-999.0,85,-99.99,,,-99.99,,2013-01-18 03:33:00,
2013-01-17 21:42:00,22.0,18.0,30.24,SW,236,0.0,-999.0,85,-99.99,,,-99.99,,2013-01-18 03:42:00,
2013-01-17 21:53:00,22.0,18.0,30.24,SW,236,0.0,-999.0,85,-99.99,,,-99.99,,2013-01-18 03:53:00,
2013-01-17 22:02:00,22.0,18.0,30.23,SW,236,0.0,-999.0,84,-99.99,,,-99.99,,2013-01-18 04:02:00,
2013-01-17 22:12:00,22.0,18.0,30.23,SW,236,0.0,-999.0,84,-99.99,,,-99.99,,2013-01-18 04:12:00,
2013-01-17 22:22:00,22.0,18.0,30.23,SW,236,0.0,-999.0,84,-99.99,,,-99.99,,2013-01-18 04:22:00,
2013-01-17 22:32:00,22.0,18.0,30.23,SW,236,0.0,-999.0,84,-99.99,,,-99.99,,2013-01-18 04:32:00,
2013-01-17 22:42:00,22.0,18.0,30.23,SW,236,0.0,-999.0,84,-99.99,,,-99.99,,2013-01-18 04:42:00,
2013-01-17 22:53:00,21.0,17.0,30.23,SW,236,0.0,-999.0,85,-99.99,,,-99.99,,2013-01-18 04:53:00,
2013-01-17 23:03:00,21.0,17.0,30.23,SW,236,0.0,-999.0,85,-99.99,,,-99.99,,2013-01-18 05:03:00,
2013-01-17 23:12:00,21.0,17.0,30.23,SW,236,0.0,-999.0,85,-99.99,,,-99.99,,2013-01-18 05:12:00,
2013-01-17 23:22:00,21.0,17.0,30.23,SW,236,0.0,-999.0,86,-99.99,,,-99.99,,2013-01-18 05:22:00,
2013-01-17 23:33:00,21.0,17.0,30.24,SW,236,0.0,-999.0,85,-99.99,,,-99.99,,2013-01-18 05:33:00,
2013-01-17 23:42:00,21.0,17.0,30.24,SW,236,0.0,-999.0,85,-99.99,,,-99.99,,2013-01-18 05:42:00,
2013-01-17 23:52:00,21.0,17.0,30.24,SW,236,0.0,-999.0,85,-99.99,,,-99.99,,2013-01-18 05:52:00,